• Join FlightAware (Why Join?)
  • Login
  • US Flag 
03:16PM EDT


 

Airport Tracker/Info


-or-


 

Live Flight TrackerFlight Track Log ✈ SKW6446 ✈ 01-May-2013 ✈ KLAX - KSMX

Flight Track Log - Related Links

Times and Time Zones

All times are in EDT time to prevent confusion due to time zone crossing. See the SKW6446 flight status page for this flight to view local times or setup timezone preferences in your user account.

Time Position Orientation Groundspeed Altitude Reporting Facility
EDT Latitude Longitude Course Direction KTS MPH feet Rate Location/Type
08:13PM 33.9469 -118.4714 320° Northwest 172 198 2,500  Level Los Angeles Center
08:14PM 33.9656 -118.5372 289° West 192 221 4,100 1,260 Climbing Los Angeles Center
08:15PM 33.9844 -118.6025 289° West 206 237 5,200 1,080 Climbing Los Angeles Center
08:16PM 34.0069 -118.6775 290° West 221 254 6,400 1,080 Climbing Los Angeles Center
08:17PM 34.0844 -118.9374 287° West  Level FlightAware Approximate
08:17PM 34.0281 -118.7494 290° West 229 264 7,500  Level Los Angeles Center
08:18PM 34.1097 -119.0430 320° Northwest  Level FlightAware Approximate
08:18PM 34.0506 -118.8222 290° West 236 272 8,500  Level Los Angeles Center
08:19PM 34.0719 -118.9025 288° West 251 289 9,000 360 Climbing Los Angeles Center
08:20PM 34.0953 -118.9889 288° West 270 311 9,300 840 Climbing Los Angeles Center
08:21PM 34.1181 -119.0692 289° West 255 293 10,800 1,260 Climbing Los Angeles Center
08:22PM 34.1650 -119.1431 308° West 235 270 12,000 540 Climbing Los Angeles Center
08:23PM 34.2061 -119.2161 304° West 263 303 12,000  Level Los Angeles Center
08:25PM 34.2438 -119.2899 302° West  Level FlightAware Approximate
08:25PM 34.2892 -119.3664 302° West 273 314 12,000  Level Los Angeles Center
08:26PM 34.3300 -119.4428 303° West 273 314 12,000  Level Los Angeles Center
08:27PM 34.3797 -119.5344 303° West 273 314 12,000  Level Los Angeles Center
08:28PM 34.4219 -119.6114 304° West 275 316 12,000  Level Los Angeles Center
08:30PM 34.4642 -119.6892 303° West 276 318 12,000  Level Los Angeles Center
08:31PM 34.5064 -119.7675 303° West 277 319 12,000  Level Los Angeles Center
08:32PM 34.5469 -119.8467 302° West 278 320 12,000 -420 Level Los Angeles Center
08:33PM 34.5922 -119.9447 299° West 278 320 11,200 -1,140 Descending Los Angeles Center
08:34PM 34.6353 -120.0297 302° West 308 354 9,700 -1,200 Descending Los Angeles Center
08:34PM 34.6708 -120.1089 299° West 270 311 9,000 -600 Descending Los Angeles Center
08:35PM 34.6906 -120.1497 300° West 238 274 8,900 -780 Descending Los Angeles Center
08:36PM 34.7106 -120.1875 303° West 229 264 8,100 -1,440 Descending Los Angeles Center
08:36PM 34.7217 -120.2131 298° West 222 255 7,500 -1,500 Descending Los Angeles Center
08:37PM 34.7456 -120.2464 311° West 221 254 6,600 -1,620 Descending Los Angeles Center
08:37PM 34.7622 -120.2706 310° West 222 255 5,900 -1,500 Descending Los Angeles Center
08:38PM 34.7861 -120.3014 313° West 220 253 5,100 -1,500 Descending Los Angeles Center
08:38PM 34.7997 -120.3239 306° West 217 250 4,400 -1,560 Descending Los Angeles Center
08:39PM 34.8228 -120.3578 310° West 216 249 3,500 -1,680 Descending Los Angeles Center
08:39PM 34.8378 -120.3800 309° West 205 236 2,700 -1,860 Descending Los Angeles Center
08:40PM 34.8569 -120.4036 315° West 194 223 1,600 -1,620 Descending Los Angeles Center
08:40PM 34.8700 -120.4194 315° West 168 193 1,100 -900 Descending Los Angeles Center
08:41PM 34.8892 -120.4425 315° West 164 189 700 -540 Descending Los Angeles Center